2021-01-13 14:18:08, 0
2021-01-13 14:18:38, 0
2021-01-13 14:20:52, 0
2021-01-13 14:23:24, 0
2021-01-13 14:33:25, 0
2021-01-13 14:35:03, 0
2021-01-13 14:36:03, 0
2021-01-13 14:37:39, 0
2021-01-13 14:38:39, 0
2021-01-13 14:39:39, 0
2021-01-13 14:40:39, 0
2021-01-13 14:41:39, 0
2021-01-13 14:43:47, 18
2021-01-13 14:44:47, 20
2021-01-13 14:45:47, 18
2021-01-13 14:46:47, 25
2021-01-13 14:47:47, 18
2021-01-13 14:48:47, 20.5
2021-01-13 14:49:47, 23.5
2021-01-13 14:50:47, 16.5
2021-01-13 14:51:47, 19.5
2021-01-13 14:52:47, 16
2021-01-13 14:53:47, 21.5
2021-01-13 14:54:47, 16
2021-01-13 14:55:47, 21
2021-01-13 14:56:47, 12.5
2021-01-13 14:57:47, 21.5
2021-01-13 14:58:47, 20
2021-01-13 14:59:47, 22.5
2021-01-13 15:00:47, 21.5
2021-01-13 15:01:47, 17
2021-01-13 15:02:47, 19.5
2021-01-13 15:03:47, 15
2021-01-13 15:04:47, 28
2021-01-13 15:05:47, 16.3
2021-01-13 15:06:47, 21.5
2021-01-13 15:07:47, 19.5
2021-01-13 15:08:47, 20.5
2021-01-13 15:09:47, 18
2021-01-13 15:10:47, 20
2021-01-13 15:11:47, 18.5
2021-01-13 15:12:47, 28
2021-01-13 15:13:47, 18.5
2021-01-13 15:14:47, 19
2021-01-13 15:15:47, 17
2021-01-13 15:16:47, 24
2021-01-13 15:17:47, 23.5
2021-01-13 15:18:47, 20.5
2021-01-13 15:19:47, 25
2021-01-13 15:20:47, 20.5
2021-01-13 15:21:47, 18.3
2021-01-13 15:22:47, 18.5
2021-01-13 15:23:47, 19.5
2021-01-13 15:24:47, 14.5
2021-01-13 15:25:47, 15.5
2021-01-13 15:26:47, 18
2021-01-13 15:27:47, 21.5
2021-01-13 15:28:47, 16
2021-01-13 15:29:47, 19
2021-01-13 15:30:47, 20.5
2021-01-13 15:31:47, 22
2021-01-13 15:32:47, 18
2021-01-13 15:33:47, 20.5
2021-01-13 15:34:47, 19
2021-01-13 15:35:47, 17.5
2021-01-13 15:36:47, 22.5
